User: anonymous   Login
Location: Burgwalden
(48.2830°N, 10.7576°E)
Time: 05:45:16
(UTC+00:00)
Language:

Cosmos 2082 Rocket - Orbit

View from above orbital plane
View from above orbital plane
View from above satellite
View from above satellite

Ground track
Ground track

The orbit data is extracted from the following two-line orbital elements,

1 20625U 90046B   24060.42727783  .00000320  00000-0  19047-3 0  9995
2 20625  70.9991  50.2558 0014875 339.5480  20.5045 14.14810571743826
Epoch (UTC): 29 February 2024 10:15:16
Eccentricity: 0.0014875
inclination: 70.9991°
perigee height: 832 km
apogee height: 854 km
right ascension of ascending node: 50.2558°
argument of perigee: 339.5480°
revolutions per day: 14.14810571
mean anomaly at epoch: 20.5045°
orbit number at epoch: 74382

The dashed part of the orbit path shows where the satellite is in the earth's shadow,  

DLR